{"data":{"norad_id":62909,"intl_designator":"2025-027C","name":"STARLINK-11567 [DTC]","alt_names":[],"object_type":"PAYLOAD","status":"ACTIVE","operator":null,"country":"US","launch_date":"2025-02-08","launch_site_code":"AFETR","launch_vehicle":null,"mission":null,"orbit_class":"UNKNOWN","rcs_meters":null,"size_class":null,"mass_kg":null,"dimensions":null,"purposes":["comms"],"wikipedia_slug":null,"has_3d_model":false,"image_url":null,"decayed_at":null,"tle_current":{"epoch":"2026-09-21T22:34:49.931616Z","epoch_age_seconds":43768,"freshness":"FRESH","line1":"1 62909U 25027C   26264.94085569  .00156083  00000+0  11923-2 0  9998","line2":"2 62909  42.9973 245.0588 0002214 268.3420  91.7194 15.70936673 94010","mean_motion":15.70936673,"eccentricity":0.0002214,"inclination_deg":42.9973,"raan_deg":245.0588,"arg_perigee_deg":268.342,"mean_anomaly_deg":91.7194,"bstar":0.0011923,"rev_number":9401,"period_min":91.665057207561,"perigee_km":354.72777984508,"apogee_km":357.70975257836,"semimajor_km":6734.3557662117,"source":"CELESTRAK","updated_at":"2026-09-22T09:00:49.706851Z"}}}